Bennington, VT

2:53 AM EST on December 09, 2019 (GMT -0500)
Morse State

Weather History for KDDH - September, 2019

Change the Weather History Date:

Wednesday, September 4, 2019

  Actual Average Record
Temperature  
Mean Temperature 67 °F 63 °F  
Max Temperature 75 °F 74 °F 87 °F (1999)
Min Temperature 58 °F 51 °F 45 °F (2000)
Degree Days  
Heating Degree Days 0 4  
Month to date heating degree days 6 13  
Since 1 July heating degree days 41 85  
Cooling Degree Days 2 2  
Month to date cooling degree days 6 8  
Year to date cooling degree days 357 296  
Growing Degree Days 18 (Base 50)    
Moisture  
Dew Point 61 °F    
Average Humidity 72    
Maximum Humidity 84    
Minimum Humidity 59    
Precipitation  
Precipitation 0.62 in 0.11 in 0.57 in (2011)
Month to date precipitation 1.46 0.41  
Year to date precipitation 28.93 27.95  
Sea Level Pressure  
Sea Level Pressure 29.89 in    
Wind  
Wind Speed 6 mph (SW)    
Max Wind Speed 20 mph    
Max Gust Speed 32 mph    
Visibility 9 miles    
Events Rain , Thunderstorm    
T = Trace of Precipitation, MM = Missing Value Source: NWS Daily Summary

Daily Weather History Graph

Daily Weather History Graph

Search for Another Location

Airport or City:

Astronomy

Sep. 04, 2019 Rise Set
Actual Time 6:20 AM EDT 7:22 PM EDT
Civil Twilight 5:51 AM EDT 7:51 PM EDT
Nautical Twilight 5:16 AM EDT 8:26 PM EDT
Astronomical Twilight 4:40 AM EDT 9:02 PM EDT
Moon 12:27 PM EDT (9/4) 10:46 PM EDT (9/4)
Length of Visible Light 14h 00m
Length of Day
13h 02m
Waxing Crescent, 34% of the Moon is Illuminated
Sep 4
Waxing Crescent
Sep 5
First Quarter
Sep 14
Full
Sep 21
Last Quarter
Sep 28
New

Hourly Weather History & Observations

Time (EDT) Temp. Dew Point Humidity Pressure Visibility Wind Dir Wind Speed Gust Speed Precip Events Conditions
12:54 AM 62.1 °F 57.9 °F 86% 29.98 in 10.0 mi Calm Calm - N/A   Clear
1:54 AM 66.9 °F 57.0 °F 70% 29.96 in 10.0 mi Variable 3.5 mph - N/A   Clear
2:54 AM 64.0 °F 57.0 °F 78% 29.91 in 10.0 mi Calm Calm - N/A   Clear
3:54 AM 64.9 °F 55.9 °F 73% 29.91 in 10.0 mi Variable 3.5 mph - N/A   Clear
4:54 AM 64.9 °F 55.0 °F 70% 29.91 in 10.0 mi North - - N/A   Clear
5:54 AM 64.0 °F 54.0 °F 70% 29.91 in 10.0 mi Variable 3.5 mph - N/A   Scattered Clouds
6:54 AM 68.0 °F 54.0 °F 61% 29.89 in 10.0 mi North - - N/A   Partly Cloudy
7:54 AM 70.0 °F 59.0 °F 68% 29.88 in 10.0 mi SSW 10.4 mph 20.7 mph N/A   Mostly Cloudy
8:54 AM 69.1 °F 60.1 °F 73% 29.90 in 10.0 mi South 9.2 mph 18.4 mph N/A   Overcast
9:54 AM 71.1 °F 62.1 °F 73% 29.88 in 10.0 mi South 12.7 mph 26.5 mph N/A   Overcast
10:17 AM 71.1 °F 62.1 °F 73% 29.90 in 10.0 mi Variable 6.9 mph - N/A   Overcast
10:54 AM 72.0 °F 63.0 °F 73% 29.85 in 10.0 mi South 6.9 mph - N/A   Mostly Cloudy
11:01 AM 73.0 °F 63.0 °F 71% 29.86 in 10.0 mi Variable 3.5 mph - N/A   Mostly Cloudy
11:16 AM 72.0 °F 62.1 °F 71% 29.86 in 10.0 mi South 8.1 mph - N/A   Mostly Cloudy
11:36 AM 73.0 °F 64.0 °F 73% 29.86 in 10.0 mi Variable 4.6 mph - N/A   Overcast
11:54 AM 75.0 °F 64.0 °F 69% 29.84 in 10.0 mi South 11.5 mph - N/A   Overcast
12:32 PM 72.0 °F 64.9 °F 78% 29.87 in 10.0 mi SSW 9.2 mph - 0.02 in Rain , Thunderstorm Light Thunderstorms and Rain
12:38 PM 71.1 °F 64.9 °F 81% 29.84 in 1.5 mi South 17.3 mph 27.6 mph 0.17 in Rain , Thunderstorm Heavy Thunderstorms and Rain
12:54 PM 69.1 °F 64.9 °F 87% 29.85 in 2.0 mi South 6.9 mph - 0.29 in Rain , Thunderstorm Light Thunderstorms and Rain
1:02 PM 70.0 °F 66.0 °F 87% 29.86 in 10.0 mi South 6.9 mph - 0.00 in   Overcast
1:21 PM 70.0 °F 66.0 °F 87% 29.84 in 2.5 mi Calm Calm - 0.06 in Rain Light Rain
1:29 PM 71.1 °F 64.9 °F 81% 29.84 in 10.0 mi SSW 3.5 mph - 0.06 in   Overcast
1:45 PM 73.0 °F 66.9 °F 81% 29.84 in 10.0 mi South 6.9 mph - 0.07 in Rain , Thunderstorm Light Rain
1:54 PM 73.0 °F 66.9 °F 81% 29.83 in 10.0 mi Calm Calm - 0.07 in   Overcast
2:23 PM 75.0 °F 66.9 °F 76% 29.83 in 10.0 mi Variable 4.6 mph - N/A Thunderstorm Mostly Cloudy
2:39 PM 72.0 °F 66.9 °F 84% 29.83 in 1.8 mi NNW 5.8 mph - 0.07 in Rain , Thunderstorm Heavy Thunderstorms and Rain
2:54 PM 68.0 °F 62.1 °F 81% 29.84 in 2.0 mi SSW 9.2 mph 18.4 mph 0.26 in Rain , Thunderstorm Heavy Thunderstorms and Rain
2:58 PM 68.0 °F 63.0 °F 84% 29.85 in 2.0 mi SSW 10.4 mph - 0.00 in Rain Light Rain
3:06 PM 69.1 °F 64.9 °F 87% 29.84 in 10.0 mi SSW 9.2 mph - 0.00 in Thunderstorm Scattered Clouds
3:27 PM 71.1 °F 66.0 °F 84% 29.85 in 10.0 mi SSW 6.9 mph - 0.00 in   Mostly Cloudy
3:54 PM 73.9 °F 64.9 °F 73% 29.85 in 10.0 mi Variable 5.8 mph - 0.00 in   Scattered Clouds
4:54 PM 73.9 °F 64.9 °F 73% 29.85 in 10.0 mi West 4.6 mph - N/A   Scattered Clouds
5:54 PM 73.0 °F 59.0 °F 61% 29.88 in 10.0 mi WNW 9.2 mph 19.6 mph N/A   Partly Cloudy
6:54 PM 70.0 °F 57.9 °F 65% 29.91 in 10.0 mi West 5.8 mph - N/A   Clear
7:54 PM 66.9 °F 57.0 °F 70% 29.96 in 10.0 mi West 6.9 mph - N/A   Clear
8:54 PM 64.0 °F 54.0 °F 70% 29.99 in 10.0 mi SW 8.1 mph - N/A   Clear
9:54 PM 62.1 °F 54.0 °F 75% 30.00 in 10.0 mi SW 5.8 mph - N/A   Clear
10:54 PM 60.1 °F 54.0 °F 80% 30.01 in 10.0 mi Variable 3.5 mph - N/A   Clear
11:47 PM 61.0 °F 54.0 °F 78% 30.04 in 10.0 mi West 5.8 mph - N/A   Overcast
11:54 PM 61.0 °F 55.0 °F 81% 30.04 in 10.0 mi West 5.8 mph - N/A   Overcast